^^
Meteo Knjazevac Station Historical Data
Daily Summary for June 23, 2021 Units:  English    Metric   Both
Daily Weekly Monthly Yearly Custom
  High: Low: Average:
Temperature: 50.7 °F 48.7 °F 49.9 °F
Dew Point: 42.4 °F 40.5 °F 41.3 °F
Humidity: 74% 70% 72%
Wind Speed: 9mph 2mph 6mph
Wind Gust: 22mph - -
Wind- - SSE
Pressure: 29.96 in 29.88 in -
Precipitation: 0.00 in    
Historical Graphs
 
 
Tabular Data for June 23, 2021
Time Temperature Dew Point Pressure Wind Wind Speed Wind Gust Humidity Rainfall Rate (Hourly) solar Conditions
00:00 50.4 °F 41 °F 29.96 in SSE 6 mph 12 mph 70% 0.00 in 0 W/m2
00:10 50.3 °F 41.6 °F 29.96 in SSE 7 mph 13 mph 72% 0.00 in 0 W/m2
00:20 50.5 °F 41.1 °F 29.96 in SSE 7 mph 17 mph 70% 0.00 in 0 W/m2
00:30 50.7 °F 41.3 °F 29.95 in SSE 5 mph 19 mph 70% 0.00 in 0 W/m2
00:40 50.7 °F 41.3 °F 29.95 in SSE 5 mph 11 mph 70% 0.00 in 0 W/m2
00:50 50.4 °F 40.9 °F 29.95 in SSE 3 mph 12 mph 70% 0.00 in 0 W/m2
01:00 50 °F 41.3 °F 29.95 in SSE 2 mph 10 mph 72% 0.00 in 0 W/m2
01:10 49.6 °F 41 °F 29.94 in South 5 mph 10 mph 72% 0.00 in 0 W/m2
01:20 49.3 °F 40.7 °F 29.94 in SSW 2 mph 6 mph 72% 0.00 in 0 W/m2
01:30 48.9 °F 40.6 °F 29.94 in South 5 mph 8 mph 73% 0.00 in 0 W/m2
01:40 48.7 °F 40.5 °F 29.94 in SSE 5 mph 10 mph 73% 0.00 in 0 W/m2
01:50 48.7 °F 40.5 °F 29.94 in SSE 5 mph 12 mph 73% 0.00 in 0 W/m2
02:00 49.1 °F 40.8 °F 29.94 in SSE 3 mph 12 mph 73% 0.00 in 0 W/m2
02:10 49.3 °F 41 °F 29.94 in SSE 3 mph 11 mph 73% 0.00 in 0 W/m2
02:20 49.5 °F 40.8 °F 29.93 in SE 5 mph 12 mph 72% 0.00 in 0 W/m2
02:30 49.8 °F 41.2 °F 29.93 in SSE 5 mph 12 mph 72% 0.00 in 0 W/m2
02:40 50 °F 41.3 °F 29.93 in SSE 5 mph 14 mph 72% 0.00 in 0 W/m2
02:50 50.3 °F 41.7 °F 29.92 in SSE 9 mph 16 mph 72% 0.00 in 0 W/m2
03:00 50.4 °F 41.7 °F 29.92 in SSE 7 mph 15 mph 72% 0.00 in 0 W/m2
03:10 50.4 °F 41.7 °F 29.91 in SSE 5 mph 13 mph 72% 0.00 in 0 W/m2
03:20 50.4 °F 41.7 °F 29.91 in SSE 8 mph 15 mph 72% 0.00 in 0 W/m2
03:30 50.5 °F 41.8 °F 29.92 in SSE 8 mph 17 mph 72% 0.00 in 0 W/m2
03:40 50.7 °F 41.3 °F 29.91 in SSE 9 mph 21 mph 70% 0.00 in 0 W/m2
03:50 50.7 °F 41.3 °F 29.92 in SSE 7 mph 20 mph 70% 0.00 in 0 W/m2
04:00 50.4 °F 41.7 °F 29.92 in SSE 8 mph 15 mph 72% 0.00 in 0 W/m2
04:10 50.2 °F 41.5 °F 29.92 in South 7 mph 15 mph 72% 0.00 in 0 W/m2
04:20 49.8 °F 41.5 °F 29.92 in South 3 mph 14 mph 73% 0.00 in 0 W/m2
04:30 49.6 °F 41.3 °F 29.92 in South 5 mph 13 mph 73% 0.00 in 0 W/m2
04:40 49.5 °F 41.2 °F 29.92 in SSE 3 mph 12 mph 73% 0.00 in 0 W/m2
04:50 49.3 °F 41.3 °F 29.91 in South 5 mph 10 mph 74% 0.00 in 0 W/m2
05:00 49.5 °F 41.5 °F 29.91 in SSE 6 mph 13 mph 74% 0.00 in 0 W/m2
05:10 49.6 °F 41.3 °F 29.91 in SSE 6 mph 15 mph 73% 0.00 in 0 W/m2
05:20 49.6 °F 41.3 °F 29.91 in SSE 5 mph 14 mph 73% 0.00 in 0 W/m2
05:30 49.5 °F 41.5 °F 29.90 in SSE 6 mph 12 mph 74% 0.00 in 0 W/m2
05:40 49.5 °F 41.5 °F 29.89 in SSE 6 mph 18 mph 74% 0.00 in 0 W/m2
05:50 49.5 °F 41.5 °F 29.90 in SSE 6 mph 13 mph 74% 0.00 in 0 W/m2
06:00 49.5 °F 41.2 °F 29.89 in South 7 mph 17 mph 73% 0.00 in 0 W/m2
06:10 49.5 °F 41.2 °F 29.88 in SSE 5 mph 17 mph 73% 0.00 in 0 W/m2
06:20 49.5 °F 41.2 °F 29.88 in SSE 8 mph 22 mph 73% 0.00 in 0 W/m2
06:30 49.5 °F 41.2 °F 29.88 in SSE 8 mph 22 mph 73% 0.00 in 0 W/m2
06:40 49.5 °F 41.2 °F 29.88 in SSE 7 mph 16 mph 73% 0.00 in 0 W/m2
06:50 49.5 °F 41.2 °F 29.88 in SSE 9 mph 16 mph 73% 0.00 in 0 W/m2
07:00 49.6 °F 41.3 °F 29.88 in SE 8 mph 17 mph 73% 0.00 in 2 W/m2
07:10 49.8 °F 41.5 °F 29.88 in SE 6 mph 19 mph 73% 0.00 in 4 W/m2
07:20 49.8 °F 41.5 °F 29.88 in SE 7 mph 17 mph 73% 0.00 in 12 W/m2
07:30 50 °F 41.7 °F 29.88 in SE 8 mph 15 mph 73% 0.00 in 19 W/m2
07:50 50.2 °F 41.9 °F 29.88 in SSE 8 mph 17 mph 73% 0.00 in 40 W/m2
08:00 50.4 °F 42 °F 29.88 in SSE 8 mph 17 mph 73% 0.00 in 54 W/m2
08:10 50.5 °F 42.2 °F 29.88 in SSE 9 mph 20 mph 73% 0.00 in 67 W/m2
08:20 50.7 °F 42.4 °F 29.88 in SSE 6 mph 19 mph 73% 0.00 in 83 W/m2
Knjazevac, Serbia
Compliments of Weather Underground - 2 mb